DW8215 Weather Reports


Display with metric or nautical units.
time (UTC)temp
F
wind
direction
speed
MPH
gust
MPH
rain 1hr
in
rain 24hr
in
rain mn
in
humidity
%
barometer
mb
20260507003032 41 300 2.0 8.0 0.00 0.00 0.00 57 1014.5
20260507001534 41 274 0.0 3.0 0.00 0.00 0.00 59 1014.5
20260507000032 41 274 1.0 8.0 0.00 0.00 0.00 59 1014.5
20260506234530 41 284 3.0 6.0 0.00 0.00 0.00 58 1014.4
20260506233030 41 248 1.0 8.0 0.00 0.00 0.00 57 1014.4
20260506231529 42 304 3.0 6.0 0.00 0.00 0.00 57 1014.4
20260506230029 42 325 2.0 8.0 0.00 0.00 0.00 57 1014.4
20260506224530 42 288 2.0 10.0 0.00 0.00 0.00 56 1014.4
20260506223029 42 302 2.0 9.0 0.00 0.00 0.00 56 1014.6
20260506221530 42 269 2.0 13.0 0.00 0.00 0.00 56 1014.4
20260506220031 42 300 1.0 9.0 0.00 0.00 0.00 56 1014.3
20260506214527 42 184 2.0 10.0 0.00 0.00 0.00 55 1014.3
20260506213025 42 298 5.0 13.0 0.00 0.00 0.00 54 1014.3
20260506211524 42 282 4.0 11.0 0.00 0.00 0.00 54 1014.3
20260506210024 42 250 5.0 16.0 0.00 0.00 0.00 55 1014.3
20260506204525 43 244 2.0 9.0 0.00 0.00 0.00 56 1014.4
20260506203021 43 279 4.0 10.0 0.00 0.00 0.00 54 1014.3
20260506201537 43 241 3.0 13.0 0.00 0.00 0.00 53 1014.4
20260506200025 43 258 3.0 14.0 0.00 0.00 0.00 52 1014.4
20260506194519 43 277 6.0 13.0 0.00 0.00 0.00 50 1014.6
20260506193017 43 244 2.0 10.0 0.00 0.00 0.00 52 1014.4
20260506191516 42 271 3.0 16.0 0.00 0.00 0.00 53 1014.5
20260506190016 42 327 3.0 11.0 0.00 0.00 0.00 55 1014.5
20260506184513 42 298 4.0 11.0 0.00 0.00 0.00 53 1014.4
20260506183011 41 308 3.0 8.0 0.00 0.00 0.00 54 1014.4
20260506181511 41 282 4.0 10.0 0.00 0.00 0.00 55 1014.3
20260506180010 41 275 3.0 9.0 0.00 0.00 0.00 55 1014.4
20260506174507 41 323 5.0 11.0 0.00 0.00 0.00 56 1014.5
20260506173005 41 326 4.0 8.0 0.00 0.00 0.00 58 1014.6
20260506171504 40 213 3.0 11.0 0.00 0.00 0.00 60 1014.6
20260506170004 40 290 2.0 11.0 0.00 0.00 0.00 59 1014.7
20260506164505 40 269 3.0 11.0 0.00 0.00 0.00 58 1014.7
20260506163114 39 267 2.0 8.0 0.00 0.00 0.00 61 1014.7
20260506161604 39 214 4.0 13.0 0.00 0.00 0.00 62 1014.7
20260506154602 40 222 4.0 10.0 0.00 0.00 0.00 61 1014.6
20260506153055 39 295 2.0 12.0 0.00 0.00 0.00 63 1014.5
20260506151553 38 264 3.0 10.0 0.00 0.00 0.00 68 1014.6
20260506150052 38 193 4.0 10.0 0.00 0.00 0.00 67 1014.4
20260506144550 38 259 4.0 8.0 0.00 0.00 0.00 64 1014.4
20260506143049 38 253 2.0 9.0 0.00 0.00 0.00 66 1014.4
20260506141552 38 216 3.0 9.0 0.00 0.00 0.00 68 1014.3
20260506140050 38 240 3.0 8.0 0.00 0.00 0.00 66 1014.3
20260506134536 38 228 3.0 8.0 0.00 0.00 0.00 68 1014.1
20260506133034 38 232 2.0 9.0 0.00 0.00 0.00 68 1014.0
20260506131532 37 231 2.0 7.0 0.00 0.00 0.00 70 1013.9
20260506130027 37 257 3.0 8.0 0.00 0.00 0.00 72 1013.8
20260506124524 36 241 1.0 9.0 0.00 0.00 0.00 74 1013.7
20260506123022 36 200 2.0 5.0 0.00 0.00 0.00 74 1013.5
20260506121520 36 281 1.0 8.0 0.00 0.00 0.00 74 1013.5
20260506120020 36 244 2.0 4.0 0.00 0.00 0.00 74 1013.5
20260506114516 35 257 2.0 5.0 0.00 0.00 0.00 73 1013.4
20260506113017 35 232 0.0 4.0 0.00 0.00 0.00 72 1013.3
20260506111513 35 237 1.0 4.0 0.00 0.00 0.00 71 1013.2
20260506110012 35 254 0.0 3.0 0.00 0.00 0.00 71 1013.2
20260506104511 35 246 0.0 4.0 0.00 0.00 0.00 71 1013.1
20260506103016 35 261 1.0 7.0 0.00 0.00 0.00 72 1012.9
20260506101508 35 247 1.0 3.0 0.00 0.00 0.00 71 1012.8
20260506100007 35 227 1.0 3.0 0.00 0.00 0.00 70 1012.8
20260506094507 35 236 1.0 4.0 0.00 0.00 0.00 70 1012.7
20260506093011 35 228 0.0 3.0 0.00 0.00 0.00 70 1012.7
20260506091504 35 215 0.0 0.0 0.00 0.00 0.00 71 1012.6
20260506090003 35 226 0.0 0.0 0.00 0.00 0.00 71 1012.7
20260506084506 36 250 0.0 2.0 0.00 0.00 0.00 70 1012.7
20260506083001 36 214 0.0 2.0 0.00 0.00 0.00 70 1012.9
20260506081501 36 232 0.0 3.0 0.00 0.00 0.00 70 1012.8
20260506080112 36 269 0.0 2.0 0.00 0.00 0.00 70 1012.7
20260506073111 36 253 0.0 6.0 0.00 0.00 0.00 70 1012.7
20260506071555 36 285 0.0 3.0 0.00 0.00 0.00 70 1012.5
20260506061600 36 227 0.0 1.0 0.00 0.00 0.00 69 1012.5
20260506044545 36 236 0.0 1.0 0.00 0.00 0.00 66 1012.3
20260506043045 36 232 0.0 0.0 0.00 0.00 0.00 68 1012.3
20260506041544 36 240 0.0 1.0 0.00 0.00 0.00 65 1012.2
20260506040035 36 256 0.0 0.0 0.00 0.00 0.00 66 1012.2
20260506034536 36 256 0.0 0.0 0.00 0.00 0.00 66 1012.2
20260506033035 36 256 0.0 0.0 0.00 0.00 0.00 71 1012.2
20260506031635 36 256 0.0 0.0 0.00 0.00 0.00 70 1012.3
20260506030033 36 256 0.0 0.0 0.00 0.00 0.00 68 1012.3
20260506024530 36 256 0.0 0.0 0.00 0.00 0.00 67 1012.3
20260506023028 36 256 0.0 0.0 0.00 0.00 0.00 63 1012.1
20260506021525 37 256 0.0 0.0 0.00 0.00 0.00 62 1012.0
20260506020042 37 260 0.0 2.0 0.00 0.00 0.00 60 1011.9
20260506014524 37 225 1.0 3.0 0.00 0.00 0.00 58 1011.8
20260506013021 38 302 0.0 4.0 0.00 0.00 0.00 59 1011.6
20260506011523 38 231 1.0 6.0 0.00 0.00 0.00 57 1011.5
20260506010024 38 294 0.0 7.0 0.00 0.00 0.00 59 1011.4
20260506004524 38 276 0.0 7.0 0.00 0.00 0.00 58 1011.4